DateTimeUTC,F1_A11,F1_S11,BsB_S11,BsG_S11,BsR_S11,BbsB_S11,BbsG_S11,BbsR_S11,BaB_A11,BaG_A11,BaR_A11,Tu_S11,T_S11,Uu_S11,U_S11,P_S11,T1_A11
2021-08-20T15:00:00Z,00000200,20000000,,,,,,,-000.15,0000.04,-000.35,20.5,26.8,09.8,06.7,0675.8,31.2
2021-08-20T15:01:00Z,00000200,20000000,,,,,,,-000.07,0000.17,0000.38,20.5,26.8,09.8,06.7,0675.8,31.2
2021-08-20T15:02:00Z,00000200,20000000,,,,,,,0000.06,-000.51,0000.12,20.5,26.8,09.8,06.7,0675.8,31.1
2021-08-20T15:03:00Z,00000200,60000000,,,,,,,0000.56,0001.18,0000.29,20.5,26.8,09.8,06.7,0675.8,31.1
2021-08-20T15:04:00Z,00000200,40000000,0002.71,0002.21,0000.82,0000.61,0000.06,0000.18,0000.57,0000.23,0000.40,20.6,26.7,09.8,06.7,0676.7,31.1
2021-08-20T15:05:00Z,00000200,00000000,0002.69,0002.04,0001.77,0000.07,0000.30,0000.34,0000.86,0000.51,0000.49,20.6,26.7,09.6,06.7,0676.8,31.1
2021-08-20T15:06:00Z,00000200,00000000,0003.09,0002.27,0001.37,0000.13,-000.19,0000.12,0000.82,0000.78,0000.50,20.6,26.7,09.6,06.7,0676.8,31.2
2021-08-20T15:07:00Z,00000200,00000000,0002.25,0002.27,0001.49,0000.04,0000.37,0000.35,0000.27,0000.59,0000.50,20.7,26.7,09.6,06.7,0676.7,31.2
2021-08-20T15:08:00Z,00000200,00000000,0003.04,0001.91,0001.40,-000.24,0000.23,0000.29,0000.86,0000.68,0000.47,20.7,26.7,09.5,06.6,0676.8,31.1
2021-08-20T15:09:00Z,00000200,00000000,0002.07,0002.28,0001.38,0000.01,0000.50,0000.23,0000.73,0000.79,0000.57,20.7,26.7,09.5,06.6,0676.8,31.1
2021-08-20T15:10:00Z,00000200,00000000,0002.79,0002.06,0001.05,0000.54,0000.13,0000.02,0000.43,0000.47,0000.55,20.7,26.7,09.6,06.7,0676.8,31.1
2021-08-20T15:11:00Z,00000200,00000000,0003.35,0001.77,0001.30,0000.68,0000.12,0000.29,0000.67,0000.60,0000.37,20.7,26.7,09.5,06.6,0676.8,31.2
2021-08-20T15:12:00Z,00000200,00000000,0003.15,0002.18,0001.78,0000.58,-000.18,-000.07,0000.74,0000.46,0000.61,20.7,26.7,09.5,06.6,0676.8,31.2
2021-08-20T15:13:00Z,00000200,00000000,0002.74,0002.24,0001.21,0000.62,0000.17,0000.05,0000.80,0000.59,0000.48,20.7,26.7,09.4,06.5,0676.8,31.2
2021-08-20T15:14:00Z,00000200,00000000,0003.45,0002.00,0001.04,0000.60,0000.21,-000.32,0000.73,0000.94,0000.46,20.7,26.7,09.4,06.5,0676.8,31.2
2021-08-20T15:15:00Z,00000200,00000000,0003.87,0001.85,0001.65,0000.29,0000.38,0000.26,0000.65,0000.30,0000.51,20.7,26.7,09.5,06.6,0676.8,31.2
2021-08-20T15:16:00Z,00000200,00000000,0003.05,0002.23,0001.11,0000.05,0000.46,0000.22,0000.51,0001.01,0000.56,20.7,26.7,09.4,06.5,0676.8,31.2
2021-08-20T15:17:00Z,00000200,00000000,0002.39,0001.55,0001.02,0000.30,0000.42,-000.07,0000.81,0000.22,0000.41,20.7,26.7,09.3,06.5,0676.7,31.1
2021-08-20T15:18:00Z,00000200,00000000,0002.60,0002.01,0001.23,0001.06,0000.13,0000.35,0000.46,0000.99,0000.35,20.8,26.7,09.3,06.5,0676.8,31.1
2021-08-20T15:19:00Z,00000200,00000000,0002.49,0002.37,0001.50,-000.07,0000.64,0000.53,0000.61,0000.21,0000.36,20.7,26.7,09.2,06.4,0676.8,31.1
2021-08-20T15:20:00Z,00000200,00000000,0002.97,0001.94,0001.42,0000.62,0000.26,0000.09,0000.81,0001.00,0000.67,20.8,26.7,09.3,06.5,0676.8,31.1
2021-08-20T15:21:00Z,00000200,00000000,0002.87,0001.97,0001.70,-000.05,0000.26,0000.38,0000.97,0000.50,0000.67,20.8,26.7,09.4,06.5,0676.8,31.1
2021-08-20T15:22:00Z,00000200,00000000,0003.21,0002.10,0001.35,0000.23,0000.22,0000.00,0000.51,0000.69,0000.25,20.8,26.7,09.4,06.6,0676.8,31.2
2021-08-20T15:23:00Z,00000200,00000000,0003.14,0002.09,0001.80,0000.72,0000.27,0000.41,0000.87,0000.71,0000.52,20.8,26.7,09.3,06.5,0676.8,31.2
2021-08-20T15:24:00Z,00000200,00000000,0003.16,0002.18,0001.16,0000.50,0000.32,0000.35,0000.76,0001.05,0000.72,20.8,26.8,09.5,06.6,0676.8,31.2
2021-08-20T15:25:00Z,00000200,00000000,0002.44,0002.39,0001.59,0000.33,0000.03,0000.32,0000.45,0000.20,0000.45,20.8,26.8,09.3,06.5,0676.8,31.2
2021-08-20T15:26:00Z,00000200,00000000,0002.84,0002.34,0001.57,0000.43,0000.23,0000.06,0000.69,0000.52,0000.30,20.8,26.8,09.3,06.5,0676.8,31.2
2021-08-20T15:27:00Z,00000200,00000000,0003.56,0002.60,0001.58,0000.64,0000.51,0000.31,0001.02,0000.86,0000.67,20.8,26.8,09.3,06.5,0676.9,31.2
2021-08-20T15:28:00Z,00000200,00000000,0003.00,0002.20,0001.74,0000.36,0000.43,0000.25,0000.19,0000.27,0000.74,20.8,26.8,09.2,06.4,0676.8,31.2
2021-08-20T15:29:00Z,00000200,00000000,0002.36,0002.28,0001.57,0000.77,0000.47,0000.37,0001.07,0000.96,0000.28,20.8,26.8,09.3,06.5,0676.9,31.2
2021-08-20T15:30:00Z,00000200,00000000,0002.62,0001.88,0000.99,0000.35,0000.23,0000.18,0000.91,0000.89,0000.40,20.8,26.8,09.3,06.5,0676.9,31.2
2021-08-20T15:31:00Z,00000200,00000000,0003.10,0002.44,0001.18,0000.55,0000.44,0000.16,0000.43,0000.65,0000.67,20.8,26.8,09.2,06.4,0676.8,31.2
2021-08-20T15:32:00Z,00000200,00000000,0003.98,0002.16,0001.83,0000.66,0000.21,0000.25,0000.66,0000.32,0000.69,20.8,26.8,09.3,06.5,0676.9,31.2
2021-08-20T15:33:00Z,00000200,00000000,0002.57,0001.90,0001.80,0000.43,0000.42,0000.27,0000.81,0000.86,0000.49,20.8,26.8,09.3,06.5,0676.9,31.2
2021-08-20T15:34:00Z,00000200,00000000,0002.41,0001.84,0001.36,0000.82,-000.07,0000.00,0000.60,0000.80,0000.52,20.8,26.8,09.4,06.5,0676.9,31.2
2021-08-20T15:35:00Z,00000200,00000000,0003.18,0001.84,0001.07,0000.42,0000.43,0000.13,0000.68,0000.25,0000.22,20.8,26.8,09.4,06.5,0676.9,31.2
2021-08-20T15:36:00Z,00000200,00000000,0002.62,0001.95,0001.25,0000.31,0000.37,0000.16,0000.48,0000.54,0000.46,20.8,26.8,09.2,06.4,0676.9,31.2
2021-08-20T15:37:00Z,00000200,00000000,0001.95,0001.86,0001.12,0000.79,0000.33,0000.10,0000.89,0000.95,0000.50,20.8,26.8,09.3,06.5,0676.9,31.2
2021-08-20T15:38:00Z,00000200,00000000,0002.43,0001.60,0001.24,-000.17,0000.58,-000.02,0000.87,0000.50,0000.63,20.8,26.8,09.3,06.5,0676.9,31.2
2021-08-20T15:39:00Z,00000200,00000000,0002.27,0001.58,0000.65,-000.51,0000.07,0000.08,0000.07,0000.44,0000.24,20.8,26.8,09.6,06.7,0676.9,31.2
2021-08-20T15:40:00Z,00000200,00000000,0001.81,0001.66,0001.33,-000.10,0000.59,0000.38,0000.65,0000.51,0000.63,20.8,26.8,09.5,06.6,0676.9,31.2
2021-08-20T15:41:00Z,00000200,00000000,0002.33,0001.59,0001.15,-000.01,0000.25,0000.03,0000.73,0000.24,0000.33,20.8,26.8,09.5,06.6,0676.9,31.2
2021-08-20T15:42:00Z,00000200,00000000,0002.39,0001.77,0000.88,0000.06,0000.10,-000.01,0000.45,0000.62,0000.28,20.8,26.8,09.5,06.6,0676.9,31.2
2021-08-20T15:43:00Z,00000200,00000000,0002.25,0001.42,0001.51,0000.06,0000.31,0000.36,0000.86,0000.61,0000.54,20.8,26.8,09.5,06.6,0676.9,31.1
2021-08-20T15:44:00Z,00000200,00000000,0001.76,0001.22,0001.17,0000.15,0000.21,0000.40,-000.11,0000.09,0000.09,20.8,26.8,09.4,06.6,0676.9,31.2
2021-08-20T15:45:00Z,00000200,00000000,0001.90,0001.35,0000.99,0000.46,-000.10,0000.08,0000.42,0000.73,0000.35,20.8,26.8,09.4,06.6,0676.9,31.2
2021-08-20T15:46:00Z,00000200,00000000,0000.84,0001.18,0000.67,0000.64,0000.13,0000.08,0000.49,0000.24,0000.43,20.8,26.8,09.4,06.5,0676.9,31.2
2021-08-20T15:47:00Z,00000200,00000000,0001.74,0000.98,0000.65,0000.17,-000.09,0000.43,0000.29,0000.36,-000.02,20.8,26.8,09.4,06.6,0676.9,31.2
2021-08-20T15:48:00Z,00000200,00000000,0001.19,0001.13,0001.33,-000.11,0000.23,0000.29,0000.45,0000.26,0000.50,20.8,26.8,09.4,06.5,0676.9,31.2
2021-08-20T15:49:00Z,00000200,00000000,0001.58,0001.48,0000.85,-000.21,0000.38,-000.10,0000.45,0000.43,0000.46,20.8,26.8,09.5,06.6,0676.9,31.2
2021-08-20T15:50:00Z,00000200,00000000,0002.34,0001.61,0000.91,0000.41,0000.24,0000.14,0000.55,0000.37,0000.10,20.8,26.8,09.5,06.6,0676.9,31.2
2021-08-20T15:51:00Z,00000200,00000000,0001.26,0000.86,0000.92,-000.20,0000.17,0000.06,0000.03,0000.40,0000.24,20.8,26.8,09.3,06.5,0676.9,31.2
2021-08-20T15:52:00Z,00000200,00000000,0001.22,0001.28,0000.57,0000.67,-000.25,0000.41,0000.48,0000.28,0000.38,20.8,26.8,09.4,06.5,0677.0,31.2
2021-08-20T15:53:00Z,00000200,00000000,0002.57,0000.82,0000.78,0000.48,-000.20,0000.16,0000.21,0000.04,0000.21,20.8,26.8,09.4,06.5,0677.0,31.2
2021-08-20T15:54:00Z,00000200,00000000,0001.29,0001.05,0000.68,0000.41,0000.04,0000.12,0000.71,0000.75,0000.66,20.8,26.9,09.5,06.6,0676.9,31.2
2021-08-20T15:55:00Z,00000200,00000000,0001.79,0000.82,0000.78,-000.08,0000.19,0000.18,0000.52,0000.42,-000.11,20.8,26.8,09.5,06.6,0677.0,31.2
2021-08-20T15:56:00Z,00000200,00000000,0001.18,0001.10,0000.97,0000.40,0000.10,0000.42,0000.35,0000.30,0000.52,20.8,26.8,09.5,06.5,0676.9,31.2
2021-08-20T15:57:00Z,00000200,40000000,,,,,,,0000.16,-000.20,0000.04,20.8,26.9,09.1,06.3,0676.9,31.2
2021-08-20T15:58:00Z,00000200,60000000,,,,,,,-000.31,0000.27,-000.37,20.6,26.9,09.4,06.4,0676.0,31.2
2021-08-20T15:59:00Z,00000200,20000000,,,,,,,0000.16,-000.11,0000.20,20.6,27.0,09.3,06.3,0676.0,31.2
